{"data":{"norad_id":67464,"epoch":"2026-05-24T23:30:43.259040Z","epoch_age_seconds":70613,"freshness":"FRESH","line1":"1 67464U 26008V   26144.97966735  .00013936  00000+0  51487-3 0  9991","line2":"2 67464  42.9988 134.0454 0000258 245.5981 114.4844 15.27586704 21249","mean_motion":15.27586704,"eccentricity":2.58e-5,"inclination_deg":42.9988,"raan_deg":134.0454,"arg_perigee_deg":245.5981,"mean_anomaly_deg":114.4844,"bstar":0.00051487,"rev_number":2124,"period_min":94.266335012562,"perigee_km":482.85200384195,"apogee_km":483.20604000868,"semimajor_km":6861.1660219253,"source":"CELESTRAK","updated_at":"2026-05-25T13:38:21.563481Z"}}